When you browse on this site, cookies collect data to enhance your experience and personalize the content and advertising you see.
Visit our Privacy Policy to learn more. By continuing to use the site, you agree to this use of cookies and data.
  • In Hungary
  • List of Countries
  • For 7 days
  • Water Temperature
  • Weather Map
  • News
  • Weather Widgets
  • user-avatar
    Login

    Hourly Weather Petrov

    Today, 14 October, Monday

    Time Temperature Precipitation Wind Pressure Humidity
    00:00 +13°C° 0 mm 0 mps 765 mmHg 63%
    01:00 +12°C° 0 mm 0 mps 765 mmHg 63%
    02:00 +12°C° 0 mm 0 mps 765 mmHg 64%
    03:00 +12°C° 0 mm 0 mps 765 mmHg 65%
    04:00 +13°C° 0 mm 1 mps 765 mmHg 66%
    05:00 +12°C° 0 mm 1 mps 764 mmHg 67%
    06:00 +12°C° 0 mm 1 mps 764 mmHg 67%
    07:00 +14°C° 0 mm 1 mps 764 mmHg 62%
    08:00 +15°C° 0 mm 1 mps 765 mmHg 57%
    09:00 +18°C° 0 mm 1 mps 765 mmHg 52%
    10:00 +19°C° 0 mm 2 mps 764 mmHg 47%
    11:00 +20°C° 0 mm 2 mps 764 mmHg 41%
    12:00 +23°C° 0 mm 2 mps 764 mmHg 36%
    13:00 +24°C° 0 mm 3 mps 764 mmHg 35%
    14:00 +25°C° 0 mm 3 mps 763 mmHg 34%
    15:00 +25°C° 0 mm 3 mps 763 mmHg 33%
    16:00 +22°C° 0 mm 3 mps 763 mmHg 38%
    17:00 +21°C° 0 mm 3 mps 763 mmHg 43%
    18:00 +19°C° 0 mm 2 mps 762 mmHg 48%
    19:00 +18°C° 0 mm 2 mps 762 mmHg 50%
    20:00 +17°C° 0 mm 2 mps 763 mmHg 53%
    21:00 +16°C° 0 mm 2 mps 763 mmHg 55%
    22:00 +16°C° 0 mm 2 mps 762 mmHg 56%
    23:00 +15°C° 0 mm 2 mps 762 mmHg 58%

    Tomorrow, 15 October, Tuesday

    Time Temperature Precipitation Wind Pressure Humidity
    00:00 +15°C° 0 mm 2 mps 761 mmHg 59%
    01:00 +14°C° 0 mm 1 mps 761 mmHg 60%
    02:00 +14°C° 0 mm 1 mps 761 mmHg 61%
    03:00 +14°C° 0 mm 1 mps 761 mmHg 61%
    04:00 +13°C° 0 mm 1 mps 761 mmHg 62%
    05:00 +13°C° 0 mm 1 mps 761 mmHg 63%
    06:00 +13°C° 0 mm 1 mps 761 mmHg 64%
    07:00 +14°C° 0 mm 1 mps 761 mmHg 60%
    08:00 +16°C° 0 mm 1 mps 761 mmHg 55%
    09:00 +18°C° 0 mm 1 mps 761 mmHg 51%
    10:00 +20°C° 0 mm 1 mps 761 mmHg 46%
    11:00 +22°C° 0 mm 1 mps 761 mmHg 42%
    12:00 +24°C° 0 mm 1 mps 761 mmHg 37%
    13:00 +25°C° 0 mm 1 mps 760 mmHg 36%
    14:00 +26°C° 0 mm 1 mps 760 mmHg 34%
    15:00 +26°C° 0 mm 1 mps 760 mmHg 33%
    16:00 +24°C° 0 mm 1 mps 760 mmHg 37%
    17:00 +23°C° 0 mm 1 mps 760 mmHg 42%
    18:00 +21°C° 0 mm 1 mps 759 mmHg 47%
    19:00 +20°C° 0 mm 1 mps 760 mmHg 48%
    20:00 +19°C° 0 mm 1 mps 760 mmHg 50%
    21:00 +19°C° 0 mm 1 mps 760 mmHg 52%
    22:00 +18°C° 0 mm 1 mps 760 mmHg 53%
    23:00 +16°C° 0 mm 1 mps 760 mmHg 55%

    Day after tomorrow, 16 October, Wednesday

    Time Temperature Precipitation Wind Pressure Humidity
    00:00 +16°C° 0 mm 1 mps 759 mmHg 57%
    01:00 +15°C° 0 mm 1 mps 760 mmHg 58%
    02:00 +15°C° 0 mm 1 mps 760 mmHg 59%
    03:00 +15°C° 0 mm 1 mps 760 mmHg 61%
    04:00 +14°C° 0 mm 1 mps 760 mmHg 62%
    05:00 +14°C° 0 mm 1 mps 760 mmHg 64%
    06:00 +14°C° 0 mm 1 mps 760 mmHg 66%
    07:00 +15°C° 0 mm 1 mps 760 mmHg 62%
    08:00 +16°C° 0 mm 1 mps 760 mmHg 58%
    09:00 +18°C° 0 mm 2 mps 760 mmHg 54%
    10:00 +20°C° 0 mm 2 mps 760 mmHg 49%
    11:00 +23°C° 0 mm 2 mps 760 mmHg 44%
    12:00 +25°C° 0 mm 2 mps 759 mmHg 38%
    13:00 +25°C° 0 mm 3 mps 759 mmHg 37%
    14:00 +26°C° 0 mm 3 mps 759 mmHg 36%
    15:00 +27°C° 0 mm 3 mps 759 mmHg 35%
    16:00 +25°C° 0 mm 3 mps 759 mmHg 40%
    17:00 +22°C° 0 mm 3 mps 759 mmHg 46%
    18:00 +20°C° 0 mm 3 mps 759 mmHg 51%
    19:00 +19°C° 0 mm 3 mps 759 mmHg 53%
    20:00 +19°C° 0 mm 3 mps 759 mmHg 54%
    21:00 +18°C° 0 mm 3 mps 759 mmHg 56%
    22:00 +17°C° 0 mm 3 mps 759 mmHg 57%
    23:00 +17°C° 0 mm 3 mps 759 mmHg 57%

    17 October, Thursday

    Time Temperature Precipitation Wind Pressure Humidity
    00:00 +16°C° 0 mm 3 mps 759 mmHg 58%
    01:00 +14°C° 0 mm 3 mps 759 mmHg 61%
    02:00 +14°C° 0 mm 3 mps 759 mmHg 65%
    03:00 +14°C° 0 mm 2 mps 759 mmHg 68%
    04:00 +14°C° 0 mm 2 mps 759 mmHg 72%
    05:00 +14°C° 0 mm 2 mps 759 mmHg 75%
    06:00 +13°C° 0 mm 2 mps 759 mmHg 78%
    07:00 +15°C° 0 mm 2 mps 759 mmHg 74%
    08:00 +16°C° 0 mm 2 mps 759 mmHg 69%
    09:00 +18°C° 0 mm 2 mps 759 mmHg 65%
    10:00 +19°C° 0 mm 2 mps 759 mmHg 58%
    11:00 +21°C° 0 mm 2 mps 759 mmHg 52%
    12:00 +24°C° 0 mm 2 mps 759 mmHg 45%
    13:00 +25°C° 0 mm 1 mps 758 mmHg 43%
    14:00 +26°C° 0 mm 1 mps 758 mmHg 41%
    15:00 +26°C° 0 mm 1 mps 758 mmHg 38%
    16:00 +25°C° 0 mm 1 mps 758 mmHg 44%
    17:00 +23°C° 0 mm 1 mps 758 mmHg 49%
    18:00 +19°C° 0 mm 0 mps 757 mmHg 55%
    19:00 +20°C° 0 mm 1 mps 757 mmHg 57%
    20:00 +19°C° 0 mm 1 mps 757 mmHg 60%
    21:00 +19°C° 0 mm 1 mps 757 mmHg 62%
    22:00 +18°C° 0 mm 1 mps 757 mmHg 64%
    23:00 +18°C° 0 mm 1 mps 757 mmHg 66%

    18 October, Friday

    Time Temperature Precipitation Wind Pressure Humidity
    00:00 +16°C° 0 mm 1 mps 757 mmHg 67%
    01:00 +16°C° 0 mm 1 mps 757 mmHg 69%
    02:00 +15°C° 0 mm 1 mps 757 mmHg 70%
    03:00 +15°C° 0 mm 1 mps 757 mmHg 71%
    04:00 +15°C° 0 mm 1 mps 757 mmHg 72%
    05:00 +13°C° 0 mm 0 mps 757 mmHg 73%
    06:00 +13°C° 0 mm 0 mps 757 mmHg 74%
    07:00 +16°C° 0 mm 1 mps 757 mmHg 69%
    08:00 +18°C° 0 mm 1 mps 757 mmHg 64%
    09:00 +19°C° 0 mm 1 mps 757 mmHg 58%
    10:00 +21°C° 0 mm 1 mps 758 mmHg 54%
    11:00 +23°C° 0 mm 2 mps 758 mmHg 49%
    12:00 +24°C° 0 mm 2 mps 758 mmHg 44%
    13:00 +25°C° 0 mm 2 mps 757 mmHg 43%
    14:00 +25°C° 0 mm 2 mps 757 mmHg 42%
    15:00 +26°C° 0 mm 2 mps 757 mmHg 40%
    16:00 +24°C° 0 mm 2 mps 757 mmHg 45%
    17:00 +21°C° 0 mm 2 mps 757 mmHg 50%
    18:00 +20°C° 0 mm 2 mps 757 mmHg 54%
    19:00 +19°C° 0 mm 2 mps 758 mmHg 57%
    20:00 +18°C° 0 mm 2 mps 758 mmHg 59%
    21:00 +18°C° 0 mm 2 mps 758 mmHg 62%
    22:00 +17°C° 0 mm 2 mps 758 mmHg 64%
    23:00 +18°C° 0 mm 1 mps 758 mmHg 66%

    19 October, Saturday

    Time Temperature Precipitation Wind Pressure Humidity
    00:00 +16°C° 0 mm 1 mps 758 mmHg 69%
    01:00 +16°C° 0 mm 1 mps 758 mmHg 69%
    02:00 +16°C° 0 mm 1 mps 758 mmHg 70%
    03:00 +15°C° 0 mm 1 mps 759 mmHg 71%
    04:00 +15°C° 0 mm 1 mps 759 mmHg 71%
    05:00 +15°C° 0 mm 1 mps 759 mmHg 70%
    06:00 +15°C° 0 mm 1 mps 759 mmHg 70%
    07:00 +16°C° 0 mm 1 mps 759 mmHg 68%
    08:00 +16°C° 0 mm 1 mps 760 mmHg 66%
    09:00 +17°C° 0 mm 2 mps 760 mmHg 63%
    10:00 +19°C° 0 mm 2 mps 760 mmHg 58%
    11:00 +20°C° 0 mm 2 mps 760 mmHg 53%
    12:00 +23°C° 0 mm 2 mps 760 mmHg 48%
    13:00 +24°C° 0 mm 2 mps 760 mmHg 47%
    14:00 +24°C° 0 mm 2 mps 760 mmHg 45%
    15:00 +25°C° 0 mm 3 mps 759 mmHg 43%
    16:00 +22°C° 0 mm 3 mps 759 mmHg 47%
    17:00 +21°C° 0 mm 3 mps 759 mmHg 51%
    18:00 +20°C° 0 mm 3 mps 759 mmHg 55%
    19:00 +19°C° 0 mm 4 mps 760 mmHg 56%
    20:00 +18°C° 0 mm 4 mps 760 mmHg 56%
    21:00 +17°C° 0 mm 4 mps 760 mmHg 56%
    22:00 +17°C° 0 mm 4 mps 760 mmHg 58%
    23:00 +16°C° 0 mm 3 mps 760 mmHg 60%
    Show more